Regional Weather Roundup
Issued by NWS

Home | Current Version | Previous Version | Text Only | Print | Product List | Glossary On
Versions: 1 2 3 4 5 6 7 8 9 10 11 12 13 14 15 16 17 18 19 20 21 22 23 24 25 26 27 28 29 30 31 32 33 34 35 36 37 38 39 40 41 42 43 44 45 46 47 48 49 50
000
ASUS43 KLSX 150557
RWRMO

WEATHER SUMMARY FOR MISSOURI
NATIONAL WEATHER SERVICE SPRINGFIELD MO
1200 AM CST FRI DEC 15 2017

NOTE: "FAIR" INDICATES FEW OR NO CLOUDS BELOW 12,000 FEET WITH NO
       SIGNIFICANT WEATHER AND/OR OBSTRUCTIONS TO VISIBILITY.
       CURRENT SKY AND/OR WEATHER CONDITIONS ARE NOT AVAILABLE FOR
       CHILLICOTHE AND FARMINGTON.

MOZ001>031-035>038-043-044-053-054-150700-
...NORTHERN AND WESTERN MISSOURI...

CITY           SKY/WX    TMP DP  RH WIND       PRES   REMARKS
KANSAS CTY INT CLOUDY    32  24  72 W6        30.12S WCI  26
6HR MIN TEMP:  32; 6HR MAX TEMP:  39;

LEE`S SUMMIT   CLOUDY    32  24  72 SW5       30.12S WCI  27
6HR MIN TEMP:  32; 6HR MAX TEMP:  39;

ST JOSEPH      CLOUDY    28  25  88 CALM      30.14S
6HR MIN TEMP:  26; 6HR MAX TEMP:  39;

CHILLICOTHE      N/A     24  21  88 CALM      30.13F
6HR MIN TEMP:  23; 6HR MAX TEMP:  35;


$$
MOZ066>068-077>081-088>096-101>105-150700-
...SOUTHWEST MISSOURI...

CITY           SKY/WX    TMP DP  RH WIND       PRES   REMARKS
SPRINGFIELD    CLOUDY    31  24  75 SW3       30.10F
6HR MIN TEMP:  31; 6HR MAX TEMP:  37;

JOPLIN         CLOUDY    35  28  75 SW3       30.14S
6HR MIN TEMP:  31; 6HR MAX TEMP:  36;


$$
MOZ032>034-039>042-045>050-055>058-069>072-150700-
...CENTRAL MISSOURI...

CITY           SKY/WX    TMP DP  RH WIND       PRES   REMARKS
COLUMBIA       NOT AVBL
JEFFERSON CITY CLOUDY    32  23  69 CALM      30.13F
6HR MIN TEMP:  31; 6HR MAX TEMP:  34;

ROLLA          CLOUDY    28  23  81 CALM      30.10F
6HR MIN TEMP:  27; 6HR MAX TEMP:  32;

SEDALIA        CLOUDY    33  26  75 S3        30.12F
6HR MIN TEMP:  32; 6HR MAX TEMP:  36;

WARRENSBURG    MOCLDY    30  27  86 CALM      30.12F

$$
MOZ051-052-059>065-150700-
...EAST CENTRAL MISSOURI...

CITY           SKY/WX    TMP DP  RH WIND       PRES   REMARKS
ST LOUIS INTL  CLOUDY    28  19  69 W5        30.11F WCI  23
6HR MIN TEMP:  28; 6HR MAX TEMP:  31;


$$
MOZ072>076-082>087-097>100-106>115-150700-
...SOUTH CENTRAL AND SOUTHEAST MISSOURI...

CITY           SKY/WX    TMP DP  RH WIND       PRES   REMARKS
CAPE GIRARDEAU CLOUDY    31  23  72 CALM      30.13F
6HR MIN TEMP:  31; 6HR MAX TEMP:  33;

POPLAR BLUFF   CLOUDY    33  25  72 CALM      30.14F
6HR MIN TEMP:  33; 6HR MAX TEMP:  35;

WEST PLAINS    CLOUDY    31  21  66 W3        30.11S
6HR MIN TEMP:  29; 6HR MAX TEMP:  36;


$$



USA.gov is the U.S. government's official web portal to all federal, state and local government web resources and services.